2019-07-23 00:05:14 r, 18.50m,0000000004Hz,0000130611c,0000000.283s, 035.1C,00002195
2019-07-23 00:15:14 r, 18.49m,0000000004Hz,0000129654c,0000000.281s, 034.8C,00002195
2019-07-23 00:25:14 r, 18.49m,0000000003Hz,0000129631c,0000000.281s, 034.8C,00002195
2019-07-23 00:35:14 r, 18.48m,0000000004Hz,0000128669c,0000000.279s, 034.4C,00002195
2019-07-23 00:45:14 r, 18.46m,0000000004Hz,0000126387c,0000000.274s, 034.4C,00002195
2019-07-23 00:55:14 r, 18.45m,0000000003Hz,0000124859c,0000000.271s, 034.4C,00002195
2019-07-23 01:05:14 r, 18.44m,0000000003Hz,0000123912c,0000000.269s, 034.1C,00002195
2019-07-23 01:15:14 r, 18.43m,0000000004Hz,0000122095c,0000000.265s, 034.1C,00002195
2019-07-23 01:25:14 r, 18.40m,0000000004Hz,0000119146c,0000000.259s, 033.8C,00002195
2019-07-23 01:35:14 r, 18.41m,0000000004Hz,0000120095c,0000000.261s, 033.8C,00002195
2019-07-23 01:45:14 r, 18.41m,0000000004Hz,0000119949c,0000000.260s, 033.8C,00002195
2019-07-23 01:55:14 r, 18.39m,0000000004Hz,0000118217c,0000000.257s, 033.8C,00002195
2019-07-23 02:05:14 r, 18.38m,0000000004Hz,0000117238c,0000000.254s, 033.5C,00002195
2019-07-23 02:15:14 r, 18.37m,0000000004Hz,0000115209c,0000000.250s, 033.5C,00002195
2019-07-23 02:25:14 r, 18.35m,0000000004Hz,0000113639c,0000000.247s, 033.5C,00002195
2019-07-23 02:35:14 r, 18.36m,0000000004Hz,0000114039c,0000000.247s, 033.1C,00002195
2019-07-23 02:45:14 r, 18.33m,0000000004Hz,0000111401c,0000000.242s, 033.1C,00002195
2019-07-23 02:55:14 r, 18.32m,0000000004Hz,0000110512c,0000000.240s, 033.1C,00002195
2019-07-23 03:05:14 r, 18.33m,0000000004Hz,0000111355c,0000000.242s, 032.8C,00002195
2019-07-23 03:15:14 r, 18.32m,0000000005Hz,0000110459c,0000000.240s, 032.8C,00002195
2019-07-23 03:25:14 r, 18.31m,0000000004Hz,0000110076c,0000000.239s, 032.8C,00002195
2019-07-23 03:35:14 r, 18.29m,0000000005Hz,0000107836c,0000000.234s, 032.5C,00002195
2019-07-23 03:45:14 r, 18.29m,0000000004Hz,0000107418c,0000000.233s, 032.5C,00002195
2019-07-23 03:55:14 r, 18.26m,0000000005Hz,0000104501c,0000000.227s, 032.5C,00002195
2019-07-23 04:05:14 r, 18.22m,0000000005Hz,0000100598c,0000000.218s, 032.2C,00002195
2019-07-23 04:15:14 r, 18.07m,0000000005Hz,0000087580c,0000000.190s, 032.2C,00002195
2019-07-23 04:25:14 r, 17.85m,0000000006Hz,0000071846c,0000000.156s, 032.2C,00002195
2019-07-23 04:35:14 r, 17.41m,0000000009Hz,0000047711c,0000000.104s, 031.9C,00002195
2019-07-23 04:45:14 r, 16.62m,0000000020Hz,0000023161c,0000000.050s, 031.9C,00002195
2019-07-23 04:55:14 r, 15.32m,0000000065Hz,0000007030c,0000000.015s, 031.9C,00002195
2019-07-23 05:05:14 r, 13.72m,0000000289Hz,0000000000c,0000000.000s, 031.5C,00002195
2019-07-23 05:15:14 r, 12.13m,0000001252Hz,0000000000c,0000000.000s, 031.2C,00002195
2019-07-23 05:25:14 r, 10.65m,0000004871Hz,0000000000c,0000000.000s, 031.2C,00002195
2019-07-23 05:35:14 r, 09.38m,0000015839Hz,0000000000c,0000000.000s, 031.2C,00002195
2019-07-23 05:45:14 r, 08.40m,0000039087Hz,0000000000c,0000000.000s, 030.9C,00002195
2019-07-23 05:55:14 r, 07.57m,0000083846Hz,0000000000c,0000000.000s, 030.9C,00002195
2019-07-23 06:05:14 r, 06.91m,0000152650Hz,0000000000c,0000000.000s, 030.9C,00002195
2019-07-23 06:15:14 r, 06.43m,0000238163Hz,0000000000c,0000000.000s, 030.9C,00002195
2019-07-23 06:25:14 r, 06.02m,0000348043Hz,0000000000c,0000000.000s, 030.9C,00002195
2019-07-23 06:35:14 r, 00.00m,0000458499Hz,0000000000c,0000000.000s, 030.9C,00002195
2019-07-23 06:45:14 r, 00.00m,0000563953Hz,0000000000c,0000000.000s, 030.9C,00002195
2019-07-23 06:55:14 r, 00.00m,0000563988Hz,0000000000c,0000000.000s, 031.2C,00002195
2019-07-23 07:05:14 r, 00.00m,0000563982Hz,0000000000c,0000000.000s, 031.2C,00002195
2019-07-23 07:15:14 r, 00.00m,0000564000Hz,0000000000c,0000000.000s, 031.2C,00002195
2019-07-23 07:25:14 r, 00.00m,0000564115Hz,0000000000c,0000000.000s, 031.9C,00002195
2019-07-23 07:35:14 r, 00.00m,0000564156Hz,0000000000c,0000000.000s, 032.2C,00002195
2019-07-23 07:45:14 r, 00.00m,0000564118Hz,0000000000c,0000000.000s, 032.5C,00002195
2019-07-23 07:55:14 r, 00.00m,0000564255Hz,0000000000c,0000000.000s, 032.8C,00002195
2019-07-23 08:05:14 r, 00.00m,0000564211Hz,0000000000c,0000000.000s, 033.1C,00002195
2019-07-23 08:15:14 r, 00.00m,0000564257Hz,0000000000c,0000000.000s, 033.5C,00002195
2019-07-23 08:25:14 r, 00.00m,0000564302Hz,0000000000c,0000000.000s, 034.1C,00002195
2019-07-23 08:35:14 r, 00.00m,0000564425Hz,0000000000c,0000000.000s, 034.4C,00002195
2019-07-23 08:45:14 r, 00.00m,0000564387Hz,0000000000c,0000000.000s, 035.1C,00002195
2019-07-23 08:55:14 r, 00.00m,0000564469Hz,0000000000c,0000000.000s, 035.7C,00002195
2019-07-23 09:05:14 r, 00.00m,0000564462Hz,0000000000c,0000000.000s, 036.0C,00002195
2019-07-23 09:15:14 r, 00.00m,0000564704Hz,0000000000c,0000000.000s, 037.7C,00002195
2019-07-23 09:25:14 r, 00.00m,0000564973Hz,0000000000c,0000000.000s, 040.6C,00002195
2019-07-23 09:35:14 r, 00.00m,0000565253Hz,0000000000c,0000000.000s, 042.8C,00002195
2019-07-23 09:45:14 r, 00.00m,0000565293Hz,0000000000c,0000000.000s, 044.4C,00002195
2019-07-23 09:55:14 r, 00.00m,0000565414Hz,0000000000c,0000000.000s, 046.4C,00002195
2019-07-23 10:05:14 r, 00.00m,0000565495Hz,0000000000c,0000000.000s, 047.7C,00002195
2019-07-23 10:15:14 r, 00.00m,0000565624Hz,0000000000c,0000000.000s, 048.9C,00002195
2019-07-23 10:25:14 r, 00.00m,0000565627Hz,0000000000c,0000000.000s, 050.2C,00002195
2019-07-23 10:35:14 r, 00.00m,0000565775Hz,0000000000c,0000000.000s, 051.5C,00002195
2019-07-23 10:45:14 r, 00.00m,0000565751Hz,0000000000c,0000000.000s, 052.5C,00002195
2019-07-23 10:55:14 r, 00.00m,0000565870Hz,0000000000c,0000000.000s, 053.1C,00002195
2019-07-23 11:05:14 r, 00.00m,0000565910Hz,0000000000c,0000000.000s, 054.1C,00002195
2019-07-23 11:15:14 r, 00.00m,0000565904Hz,0000000000c,0000000.000s, 054.7C,00002195
2019-07-23 11:25:14 r, 00.00m,0000565923Hz,0000000000c,0000000.000s, 054.7C,00002195
2019-07-23 11:35:14 r, 00.00m,0000565981Hz,0000000000c,0000000.000s, 055.4C,00002195
2019-07-23 11:45:14 r, 00.00m,0000565981Hz,0000000000c,0000000.000s, 055.7C,00002195
2019-07-23 11:55:14 r, 00.00m,0000566004Hz,0000000000c,0000000.000s, 056.0C,00002195
2019-07-23 12:05:14 r, 00.00m,0000565956Hz,0000000000c,0000000.000s, 056.7C,00002195
2019-07-23 12:15:14 r, 00.00m,0000565987Hz,0000000000c,0000000.000s, 057.3C,00002195
2019-07-23 12:25:14 r, 00.00m,0000565995Hz,0000000000c,0000000.000s, 058.3C,00002195
2019-07-23 12:35:14 r, 00.00m,0000566036Hz,0000000000c,0000000.000s, 058.9C,00002195
2019-07-23 12:45:14 r, 00.00m,0000566060Hz,0000000000c,0000000.000s, 059.3C,00002195
2019-07-23 12:55:14 r, 00.00m,0000566029Hz,0000000000c,0000000.000s, 059.3C,00002195
2019-07-23 13:05:14 r, 00.00m,0000566014Hz,0000000000c,0000000.000s, 059.3C,00002195
2019-07-23 13:15:14 r, 00.00m,0000566102Hz,0000000000c,0000000.000s, 059.3C,00002195
2019-07-23 13:25:14 r, 00.00m,0000566021Hz,0000000000c,0000000.000s, 059.6C,00002195
2019-07-23 13:35:14 r, 00.00m,0000566044Hz,0000000000c,0000000.000s, 059.6C,00002195
2019-07-23 13:45:14 r, 00.00m,0000566058Hz,0000000000c,0000000.000s, 060.2C,00002195
2019-07-23 13:55:14 r, 00.00m,0000566087Hz,0000000000c,0000000.000s, 060.5C,00002195
2019-07-23 14:05:15 r, 00.00m,0000566109Hz,0000000000c,0000000.000s, 060.2C,00002195
2019-07-23 14:15:14 r, 00.00m,0000566055Hz,0000000000c,0000000.000s, 059.9C,00002195
2019-07-23 14:25:15 r, 00.00m,0000566093Hz,0000000000c,0000000.000s, 059.6C,00002195
2019-07-23 14:35:14 r, 00.00m,0000566071Hz,0000000000c,0000000.000s, 059.9C,00002195
2019-07-23 14:45:15 r, 00.00m,0000566110Hz,0000000000c,0000000.000s, 059.9C,00002195
2019-07-23 14:55:15 r, 00.00m,0000565943Hz,0000000000c,0000000.000s, 059.9C,00002195
2019-07-23 15:05:15 r, 00.00m,0000566026Hz,0000000000c,0000000.000s, 060.2C,00002195
2019-07-23 15:15:15 r, 00.00m,0000566039Hz,0000000000c,0000000.000s, 059.9C,00002195
2019-07-23 15:25:15 r, 00.00m,0000565965Hz,0000000000c,0000000.000s, 059.6C,00002195
2019-07-23 15:35:15 r, 00.00m,0000565940Hz,0000000000c,0000000.000s, 059.6C,00002195
2019-07-23 15:45:15 r, 00.00m,0000566034Hz,0000000000c,0000000.000s, 059.3C,00002195
2019-07-23 15:55:15 r, 00.00m,0000565963Hz,0000000000c,0000000.000s, 059.3C,00002195
2019-07-23 16:05:15 r, 00.00m,0000565933Hz,0000000000c,0000000.000s, 059.6C,00002195
2019-07-23 16:15:15 r, 00.00m,0000565967Hz,0000000000c,0000000.000s, 059.3C,00002195
2019-07-23 16:25:15 r, 00.00m,0000565848Hz,0000000000c,0000000.000s, 058.6C,00002195
2019-07-23 16:35:15 r, 00.00m,0000565851Hz,0000000000c,0000000.000s, 057.6C,00002195
2019-07-23 16:45:15 r, 00.00m,0000565843Hz,0000000000c,0000000.000s, 057.3C,00002195
2019-07-23 16:55:15 r, 00.00m,0000565767Hz,0000000000c,0000000.000s, 056.7C,00002195
2019-07-23 17:05:15 r, 00.00m,0000565723Hz,0000000000c,0000000.000s, 056.0C,00002195
2019-07-23 17:15:15 r, 00.00m,0000565719Hz,0000000000c,0000000.000s, 055.4C,00002195
2019-07-23 17:25:15 r, 00.00m,0000565631Hz,0000000000c,0000000.000s, 054.1C,00002195
2019-07-23 17:35:15 r, 00.00m,0000565598Hz,0000000000c,0000000.000s, 053.1C,00002195
2019-07-23 17:45:15 r, 00.00m,0000565697Hz,0000000000c,0000000.000s, 054.1C,00002195
2019-07-23 17:55:15 r, 00.00m,0000565583Hz,0000000000c,0000000.000s, 052.8C,00002195
2019-07-23 18:05:15 r, 00.00m,0000565522Hz,0000000000c,0000000.000s, 052.5C,00002195
2019-07-23 18:15:15 r, 00.00m,0000565513Hz,0000000000c,0000000.000s, 052.5C,00002195
2019-07-23 18:25:15 r, 00.00m,0000565596Hz,0000000000c,0000000.000s, 052.2C,00002195
2019-07-23 18:35:15 r, 00.00m,0000565474Hz,0000000000c,0000000.000s, 051.8C,00002195
2019-07-23 18:45:15 r, 00.00m,0000565322Hz,0000000000c,0000000.000s, 049.6C,00002195
2019-07-23 18:55:15 r, 00.00m,0000565281Hz,0000000000c,0000000.000s, 048.0C,00002195
2019-07-23 19:05:15 r, 00.00m,0000565143Hz,0000000000c,0000000.000s, 047.0C,00002195
2019-07-23 19:15:15 r, 00.00m,0000565084Hz,0000000000c,0000000.000s, 046.0C,00002195
2019-07-23 19:25:15 r, 00.00m,0000565111Hz,0000000000c,0000000.000s, 045.7C,00002195
2019-07-23 19:35:15 r, 00.00m,0000564977Hz,0000000000c,0000000.000s, 045.1C,00002195
2019-07-23 19:45:15 r, 00.00m,0000564976Hz,0000000000c,0000000.000s, 045.1C,00002195
2019-07-23 19:55:15 r, 00.00m,0000564989Hz,0000000000c,0000000.000s, 045.1C,00002195
2019-07-23 20:05:15 r, 00.00m,0000564890Hz,0000000000c,0000000.000s, 044.4C,00002195
2019-07-23 20:15:15 r, 00.00m,0000564938Hz,0000000000c,0000000.000s, 044.1C,00002195
2019-07-23 20:25:15 r, 00.00m,0000564887Hz,0000000000c,0000000.000s, 043.5C,00002195
2019-07-23 20:35:15 r, 00.00m,0000564801Hz,0000000000c,0000000.000s, 043.1C,00002195
2019-07-23 20:45:15 r, 00.00m,0000564819Hz,0000000000c,0000000.000s, 042.5C,00002195
2019-07-23 20:55:15 r, 00.00m,0000441508Hz,0000000000c,0000000.000s, 042.2C,00002195
2019-07-23 21:05:15 r, 06.16m,0000305454Hz,0000000000c,0000000.000s, 041.9C,00002195
2019-07-23 21:15:15 r, 06.94m,0000149938Hz,0000000000c,0000000.000s, 041.5C,00002195
2019-07-23 21:25:15 r, 07.88m,0000062627Hz,0000000000c,0000000.000s, 041.2C,00002195
2019-07-23 21:35:15 r, 08.87m,0000025329Hz,0000000000c,0000000.000s, 040.6C,00002195
2019-07-23 21:45:15 r, 10.33m,0000006531Hz,0000000000c,0000000.000s, 040.2C,00002195
2019-07-23 21:55:15 r, 11.92m,0000001524Hz,0000000000c,0000000.000s, 040.2C,00002195
2019-07-23 22:05:15 r, 13.47m,0000000364Hz,0000000000c,0000000.000s, 039.9C,00002195
2019-07-23 22:15:15 r, 14.95m,0000000092Hz,0000005020c,0000000.011s, 039.6C,00002195
2019-07-23 22:25:15 r, 16.29m,0000000027Hz,0000017110c,0000000.037s, 039.3C,00002195
2019-07-23 22:35:15 r, 17.10m,0000000012Hz,0000036209c,0000000.079s, 039.3C,00002195
2019-07-23 22:45:15 r, 17.66m,0000000007Hz,0000060508c,0000000.131s, 039.0C,00002195
2019-07-23 22:55:15 r, 17.82m,0000000007Hz,0000070066c,0000000.152s, 038.6C,00002195
2019-07-23 23:05:15 r, 18.15m,0000000005Hz,0000095059c,0000000.206s, 038.6C,00002195
2019-07-23 23:15:15 r, 18.11m,0000000005Hz,0000091244c,0000000.198s, 038.6C,00002195
2019-07-23 23:25:15 r, 18.07m,0000000005Hz,0000088272c,0000000.192s, 038.3C,00002195
2019-07-23 23:35:15 r, 18.34m,0000000004Hz,0000111771c,0000000.243s, 038.0C,00002195
2019-07-23 23:45:15 r, 18.27m,0000000004Hz,0000104485c,0000000.227s, 037.7C,00002195
2019-07-23 23:55:15 r, 18.46m,0000000004Hz,0000124755c,0000000.271s, 037.3C,00002195
